Regional Weather Roundup
Issued by NWS Newport/Morehead, NC

Current Version | Previous Version | Graphics & Text | Print | Product List | Glossary Off
Versions: 1 2 3 4 5 6 7 8 9 10 11 12 13 14 15 16 17 18 19 20 21 22 23 24 25 26 27 28 29 30 31 32 33 34 35 36 37 38 39 40 41 42 43 44 45 46 47 48 49 50

000
ASUS42 KMHX 251313
RWRMHX
WEATHER ROUNDUP FOR EASTERN NORTH CAROLINA
NATIONAL WEATHER SERVICE NEWPORT/MOREHEAD CITY NC
900 AM EDT SUN JUN 25 2017

NOTE: "FAIR" INDICATES FEW OR NO CLOUDS BELOW 12,000 FEET
WITH NO SIGNIFICANT WEATHER AND/OR OBSTRUCTIONS TO VISIBILITY

NCZ015>017-031-032-045>047-102-103-251400-
NORTH COAST

CITY           SKY/WX    TMP DP  RH WIND       PRES   REMARKS
EDENTON        CLOUDY    76  73  87 CALM      30.04R
ELIZABETH CITY CLOUDY    76  74  93 W5        30.02S
KITTY HAWK     CLOUDY    76  76  99 W7        30.01S
MANTEO         CLOUDY    76  73  92 W6        30.03S

$$

NCZ045>047-081-094-103-104-251400-
CENTRAL COAST

CITY           SKY/WX    TMP DP  RH WIND       PRES   REMARKS
FRISCO         CLOUDY    79  74  84 W6        30.04R

$$

NCZ095-097-098-100-101-251400-
SOUTHERN COAST

CITY           SKY/WX    TMP DP  RH WIND       PRES   REMARKS
BEAUFORT       CLOUDY    80  77  90 W7        30.04R
CEDAR ISLAND   NOT AVBL
JACKSONVILLE   CLOUDY    78  76  93 W8        30.04R
PINEY ISLAND   CLOUDY   N/A N/A N/A W5        30.04R
WILMINGTON     CLOUDY    78  75  90 W8        30.04R


$$

NCZ011>013-027>030-043-044-078>080-089-090>093-098-251400-
COASTAL PLAIN

CITY           SKY/WX    TMP DP  RH WIND       PRES   REMARKS
AHOSKIE          N/A     72  71  98 CALM      30.04S
CLINTON        CLOUDY    76  76 100 CALM      30.05R
ELIZABETHTOWN  NOT AVBL
GOLDSBORO      CLOUDY    75  75 100 CALM      30.03S
GREENVILLE     CLOUDY    75  73  94 CALM      30.06R
HAVELOCK       CLOUDY    78  74  87 W7        30.05R
KENANSVILLE    CLOUDY    77  75  94 W3        30.05R
KINSTON        CLOUDY    75  73  94 W5        30.05R FOG
NEW BERN       CLOUDY    77  76  96 W5        30.05R
RICHLANDS      CLOUDY    77  75  93 W5        30.05R
ROCKY MOUNT    MOSUNNY   75  72  90 NW3       30.05S
WASHINGTON     CLOUDY   N/A N/A N/A NW3       30.04S
WHITEVILLE     CLOUDY    78  74  86 CALM      30.04R

$$

AMZ130-135-150-152-154-156-158-170-250-252-270-ANZ085-086-088-633-658-670-251400-
MARINE OBSERVATIONS

STATION/POSITION TIME  TEMP    WIND        PRES    WAVE   SWELL
                       AIR SEA DIR/SP/G            HT/PER HT/PER
                 (UTC) (F)     (DEG/KT/KT) (MB)    (FT/S) (FT/S)
CHESAPEAKE LIGHT NOT AVBL
64 E VA BEACH    1250   73 72  260/  6/  8 1016.6    4/ 7   3/ 7
DUCK             1248   75 59  270/  6/  8 1015.9
2 E DUCK         NOT AVBL
OREGON INLET     1248          270/  6/  8   N/A
13E OREGON INLT  1248      74                N/A     3/ 6   3/ 6
HATTERAS CG      1248   78 78  290/  8/ 11 1017.0
DIAMOND BUOY     1250   79 80  280/ 10/ 14 1017.0    5/ 7   3/ 7
CAPE LOOKOUT     1300   77     240/  8/ 12 1017.0
BEAUFORT LAB     1248   78 78  250/  4/  7 1016.6
30 SE NEW RVR IN 1208   80 80  240/ 14/ 17 1017.2
30 SE NEW RVR IN 1243      80                N/A     5/ 6
27 SE WRIGHTSVLE 1208   77 80  230/ 16/ 25 1016.6
5 SE WRIGHTSVLE  1208   78 79  270/  8/ 12 1016.7
225 S CAPE HAT   1250   81 80  210/ 12/ 14 1020.5    4/ 5   3/ 6
41 SE CHARLESTON 1250   80 81  230/ 16/ 19 1017.8    4/ 6   2/ 9

$$




USA.gov is the U.S. government's official web portal to all federal, state and local government web resources and services.